Location: Newark
(43.4306°N, 0.3089°E)
Time: 19:54:06
(UTC+00:00)

Vanguard 3 - Pass Details

Date: 28 August 2019
Orbit: 508 x 3262 km, 33.3° (Epoch: 15 October)

Event Time Altitude Azimuth Distance (km) Brightness Sun altitude
Rises 20:05:12 0° 263° (W) 3,639 11.4 -14.9°
Reaches altitude 10° 20:10:16 10° 228° (SW) 2,167 9.6 -15.7°
Maximum altitude 20:11:30 11° 213° (SSW) 1,999 9.2 -15.9°
Drops below altitude 10° 20:12:40 10° 197° (SSW) 1,968 9.0 -16.1°
Enters shadow 20:13:45 - 183° (S) 2,057 9.0 -16.3°
Sets 20:16:23 0° 158° (SSE) 2,647 - -16.7°
